Location: Lussas
(44.6119°N, 4.4726°E)
Time: 15:40:01
(UTC+00:00)

NOSS 3-4 (A) - Pass Details

Date: 26 November 2020
Orbit: 879 x 1333 km, 63.4° (Epoch: 25 January)

Event Time Altitude Azimuth Distance (km) Brightness Sun altitude
Exits shadow 04:19:42 18° 194° (SSW) 2,045 5.1 -26.8°
Maximum altitude 04:24:02 58° 121° (ESE) 1,052 3.9 -26.0°
Drops below altitude 10° 04:30:04 10° 44° (NE) 2,691 6.3 -25.0°
Sets 04:32:46 0° 40° (NE) 3,698 7.0 -24.5°
